GalileoSat-31

operational
NORAD ID: 61182 Int'l Des: 2024-167 Owner: EUSPA Country: I-EU Constellation: Galileo
MEOCIRCULAR

About GalileoSat-31

Description loading...

Live Position

Loading 3D Globe...

Upcoming Passes

Altitude History

Altitude vs Time

uPlot chart will show altitude changes over time

Two-Line Element Set

1 61182U 24167A 25298.34929541 .00000004 00000-0 00000-0 0 9995
2 61182 55.2597 227.7584 0003411 232.7888 309.0833 1.70473481 6877
Epoch: Oct 25, 2025 • Age: 5 hours

Current Status

Altitude 23233.9 km
Velocity 3.67 km/s
Sub-Earth Point -42.81°S, 43.84°W
Launch Date Sep 17, 2024
Age 1.1 years
Type navigation

Technical Details

Classification Payload
Mass 733.00 kg
Dry Mass 660.00 kg
Total Mass 733.00 kg
Length 2.70 m
Diameter 1.60 m
Span 14.50 m
Shape Box+2 pan
Manufacturer OHB
Bus Type Galileo
Phase Status In Orbit
Owner/State EUSPA/I-EU

Large Constellations

Loading constellations...